Date String (YYYY-MM-DD hh:mm:ss) UTC,Instrument flags,absolute air pressure of the measurement (hPa),sample flow rate (lpm),inlet stack bypass flow (lpm),air temperature of the measurement (°C),ambient temperature measured by the external sensor (°C),aerosol sample conditioner tube jacket temperature (°C),OPC LED temperature (°C),internal box temperature (°C),relative humidity of the measurement (%),span deviation,mass concentration of particles derived from Lorenz-Mie calculation of OPC scattering (μg/m³),mass concentration of particles derived from Lorenz-Mie calculation of OPC scattering (μg/m³),mass concentration of particles derived from Lorenz-Mie calculation of OPC scattering (μg/m³)
DateTimeUTC,F1_M11,P_M11,Q1_M11,Q2_M11,T1_M11,T2_M11,T3_M11,T4_M11,T5_M11,U1_M11,ZSPAN_M11,X2_M11,X0_M11,X1_M11
2024-05-07 04:00:00,SystemResetWarning,0815.5,5.00,000.00,021.6,020.8,000.0,029.8,023.2,013.3,0000.0,0000.94,0004.36,0000.30
2024-05-07 04:01:00,SystemResetWarning,0815.6,5.00,000.00,021.6,020.8,000.0,029.8,023.2,013.4,0000.0,0000.89,0003.59,0000.30
2024-05-07 04:02:00,SystemResetWarning,0815.7,5.00,000.00,021.6,020.8,000.0,029.8,023.2,013.4,0000.0,0000.89,0003.67,0000.30
2024-05-07 04:03:00,SystemResetWarning,0815.6,5.00,000.00,021.6,020.8,000.0,029.8,023.3,013.5,0000.0,0000.87,0003.87,0000.30
2024-05-07 04:04:00,SystemResetWarning,0815.2,5.00,000.00,021.6,020.9,000.0,029.8,023.3,013.4,0000.0,0000.87,0003.82,0000.30
2024-05-07 04:05:00,SystemResetWarning,0815.3,5.00,000.00,021.6,020.9,000.0,029.8,023.3,013.6,0000.0,0000.88,0003.69,0000.29
2024-05-07 04:06:00,SystemResetWarning,0815.5,5.00,000.00,021.6,020.8,000.0,029.8,023.3,014.0,0000.0,0000.86,0004.13,0000.28
2024-05-07 04:07:00,SystemResetWarning,0815.4,5.01,000.00,021.6,020.8,000.0,029.8,023.2,014.1,0000.0,0000.81,0004.78,0000.27
2024-05-07 04:08:00,SystemResetWarning,0815.4,5.01,000.00,021.6,020.8,000.0,029.8,023.3,013.8,0000.0,0000.77,0004.23,0000.26
2024-05-07 04:09:00,SystemResetWarning,0815.4,5.00,000.00,021.6,020.8,000.0,029.8,023.3,013.2,0000.0,0000.70,0003.68,0000.26
2024-05-07 04:10:00,SystemResetWarning,0815.7,5.00,000.00,021.6,020.8,000.0,029.8,023.2,013.6,0000.0,0000.70,0003.69,0000.26
2024-05-07 04:11:00,SystemResetWarning,0815.7,4.99,000.00,021.6,020.8,000.0,029.8,023.2,013.8,0000.0,0000.69,0003.55,0000.26
2024-05-07 04:12:00,SystemResetWarning,0815.6,5.00,000.00,021.6,020.8,000.0,029.8,023.2,014.2,0000.0,0000.71,0003.55,0000.27
2024-05-07 04:13:00,SystemResetWarning,0815.6,5.00,000.00,021.6,020.8,000.0,029.8,023.1,014.1,0000.0,0000.71,0003.49,0000.27
2024-05-07 04:14:00,SystemResetWarning,0815.5,5.00,000.00,021.6,020.8,000.0,029.8,023.2,013.8,0000.0,0000.70,0003.24,0000.27
2024-05-07 04:15:00,SystemResetWarning,0815.6,5.01,000.00,021.5,020.8,000.0,029.7,023.2,013.9,0000.0,0000.68,0003.19,0000.29
2024-05-07 04:16:00,SystemResetWarning,0815.6,5.01,000.00,021.5,020.8,000.0,029.7,023.2,014.0,0000.0,0000.68,0003.27,0000.31
2024-05-07 04:17:00,SystemResetWarning,0815.7,5.01,000.00,021.5,020.8,000.0,029.7,023.2,013.7,0000.0,0000.70,0002.90,0000.32
2024-05-07 04:18:00,SystemResetWarning,0815.9,5.00,000.00,021.5,020.8,000.0,029.7,023.2,013.7,0000.0,0000.74,0002.49,0000.33
2024-05-07 04:19:00,SystemResetWarning,0815.8,4.99,000.00,021.5,020.8,000.0,029.7,023.2,013.8,0000.0,0000.77,0003.31,0000.34
2024-05-07 04:20:00,SystemResetWarning,0815.2,4.99,000.00,021.5,020.8,000.0,029.7,023.2,013.3,0000.0,0000.86,0003.75,0000.35
2024-05-07 04:21:00,SystemResetWarning,0815.3,5.01,000.00,021.5,020.7,000.0,029.7,023.2,012.6,0000.0,0000.97,0004.98,0000.36
2024-05-07 04:22:00,SystemResetWarning,0815.6,5.01,000.00,021.5,020.7,000.0,029.7,023.2,013.0,0000.0,0000.99,0005.11,0000.37
2024-05-07 04:23:00,SystemResetWarning,0815.8,5.00,000.00,021.5,020.7,000.0,029.7,023.1,013.3,0000.0,0001.01,0005.23,0000.37
2024-05-07 04:24:00,SystemResetWarning,0815.7,4.99,000.00,021.5,020.7,000.0,029.7,023.1,013.5,0000.0,0001.04,0005.34,0000.39
2024-05-07 04:25:00,SystemResetWarning,0815.4,4.99,000.00,021.5,020.7,000.0,029.7,023.2,013.3,0000.0,0001.08,0005.39,0000.40
2024-05-07 04:26:00,SystemResetWarning,0815.3,4.99,000.00,021.5,020.7,000.0,029.7,023.2,012.7,0000.0,0001.08,0005.41,0000.41
2024-05-07 04:27:00,SystemResetWarning,0815.5,5.01,000.00,021.5,020.7,000.0,029.7,023.1,012.4,0000.0,0001.14,0005.78,0000.42
2024-05-07 04:28:00,SystemResetWarning,0815.4,5.01,000.00,021.5,020.7,000.0,029.7,023.1,012.7,0000.0,0001.17,0007.03,0000.42
2024-05-07 04:29:00,SystemResetWarning,0815.5,5.00,000.00,021.5,020.7,000.0,029.7,023.1,013.0,0000.0,0001.19,0007.19,0000.43
2024-05-07 04:30:00,SystemResetWarning,0815.4,4.99,000.00,021.5,020.7,000.0,029.7,023.1,013.1,0000.0,0001.18,0006.93,0000.44
2024-05-07 04:31:00,SystemResetWarning,0815.5,5.00,000.00,021.5,020.7,000.0,029.7,023.1,013.1,0000.0,0001.13,0006.69,0000.44
2024-05-07 04:32:00,SystemResetWarning,0815.5,5.00,000.00,021.5,020.7,000.0,029.7,023.1,012.7,0000.0,0001.05,0005.28,0000.45
2024-05-07 04:33:00,SystemResetWarning,0815.5,5.00,000.00,021.5,020.7,000.0,029.7,023.1,012.5,0000.0,0001.04,0005.02,0000.44
2024-05-07 04:34:00,SystemResetWarning,0815.5,5.00,000.00,021.5,020.7,000.0,029.7,023.1,012.7,0000.0,0001.05,0005.26,0000.45
2024-05-07 04:35:00,SystemResetWarning,0815.6,4.99,000.00,021.5,020.7,000.0,029.6,023.1,012.8,0000.0,0001.09,0006.11,0000.45
2024-05-07 04:36:00,SystemResetWarning,0815.7,5.00,000.00,021.5,020.7,000.0,029.6,023.1,013.0,0000.0,0001.11,0006.27,0000.45
2024-05-07 04:37:00,SystemResetWarning,0815.6,4.99,000.00,021.5,020.7,000.0,029.6,023.1,013.1,0000.0,0001.15,0006.86,0000.45
2024-05-07 04:38:00,SystemResetWarning,0815.6,5.00,000.00,021.5,020.7,000.0,029.6,023.1,013.1,0000.0,0001.16,0008.27,0000.46
2024-05-07 04:39:00,SystemResetWarning,0815.5,5.01,000.00,021.5,020.7,000.0,029.6,023.1,013.1,0000.0,0001.16,0007.54,0000.46
2024-05-07 04:40:00,SystemResetWarning,0815.5,5.01,000.00,021.5,020.7,000.0,029.6,023.1,012.9,0000.0,0001.14,0007.14,0000.46
2024-05-07 04:41:00,SystemResetWarning,0815.1,5.00,000.00,021.5,020.7,000.0,029.6,023.1,013.0,0000.0,0001.14,0006.49,0000.47
2024-05-07 04:42:00,SystemResetWarning,0815.1,5.00,000.00,021.5,020.7,000.0,029.6,023.1,013.0,0000.0,0001.14,0007.01,0000.48
2024-05-07 04:43:00,SystemResetWarning,0815.3,5.00,000.00,021.5,020.7,000.0,029.6,023.1,013.0,0000.0,0001.17,0007.37,0000.48
2024-05-07 04:44:00,SystemResetWarning,0815.3,4.99,000.00,021.5,020.7,000.0,029.6,023.1,013.0,0000.0,0001.17,0007.38,0000.49
2024-05-07 04:45:00,SystemResetWarning,0815.3,4.99,000.00,021.5,020.7,000.0,029.6,023.1,012.6,0000.0,0001.13,0007.16,0000.49
2024-05-07 04:46:00,SystemResetWarning,0815.2,5.00,000.00,021.4,020.7,000.0,029.6,023.0,012.5,0000.0,0001.10,0006.36,0000.50
2024-05-07 04:47:00,SystemResetWarning,0815.2,5.01,000.00,021.4,020.7,000.0,029.6,023.1,012.5,0000.0,0001.11,0006.28,0000.51
2024-05-07 04:48:00,SystemResetWarning,0815.1,5.00,000.00,021.4,020.7,000.0,029.6,023.1,012.6,0000.0,0001.08,0005.50,0000.53
2024-05-07 04:49:00,SystemResetWarning,0815.1,5.00,000.00,021.4,020.7,000.0,029.6,023.1,012.6,0000.0,0001.03,0003.18,0000.53
2024-05-07 04:50:00,SystemResetWarning,0815.0,5.00,000.00,021.4,020.7,000.0,029.6,023.1,012.5,0000.0,0001.02,0003.13,0000.53
2024-05-07 04:51:00,SystemResetWarning,0815.2,5.00,000.00,021.4,020.7,000.0,029.6,023.1,012.5,0000.0,0001.04,0003.20,0000.54
2024-05-07 04:52:00,SystemResetWarning,0815.2,5.00,000.00,021.4,020.7,000.0,029.6,023.1,012.6,0000.0,0001.08,0004.08,0000.55
2024-05-07 04:53:00,SystemResetWarning,0815.0,5.00,000.00,021.4,020.6,000.0,029.6,023.1,012.7,0000.0,0001.10,0004.18,0000.56
2024-05-07 04:54:00,SystemResetWarning,0815.0,5.00,000.00,021.4,020.6,000.0,029.6,023.1,012.7,0000.0,0001.11,0003.82,0000.56
2024-05-07 04:55:00,SystemResetWarning,0815.2,5.00,000.00,021.4,020.6,000.0,029.6,023.0,012.7,0000.0,0001.15,0003.90,0000.56
2024-05-07 04:56:00,SystemResetWarning,0815.1,5.00,000.00,021.4,020.6,000.0,029.6,023.0,012.5,0000.0,0001.14,0003.65,0000.57
2024-05-07 04:57:00,SystemResetWarning,0815.3,5.00,000.00,021.4,020.6,000.0,029.6,023.0,012.2,0000.0,0001.15,0003.69,0000.57
2024-05-07 04:58:00,SystemResetWarning,0815.3,5.01,000.00,021.4,020.6,000.0,029.6,023.0,012.1,0000.0,0001.17,0004.08,0000.57
2024-05-07 04:59:00,SystemResetWarning,0815.1,5.00,000.00,021.4,020.6,000.0,029.6,023.0,012.5,0000.0,0001.19,0004.46,0000.56
